Orbital Elements at Epoch 2459200.5 (2020-Dec-17.0) TDB
Reference: JPL 20 (heliocentric ecliptic J2000)
Element | Value | Uncertainty (1-sigma) | Units |
e | .136152557745162 | 4.4567e-08 | |
a | 3.115377491246728 | 2.2171e-08 | au |
q | 2.69121087747178 | 1.3866e-07 | au |
i | 5.376006665688944 | 5.2646e-06 | deg |
node | 2.837047310111045 | 4.981e-05 | deg |
peri | 33.0042996803171 | 5.5078e-05 | deg |
M | 22.96393876512499 | 2.085e-05 | deg |
tp | 2459072.382539130824 (2020-Aug-10.88253913) | 0.0001164 | TDB |
period | 2008.465811751277 5.50 | 2.144e-05 5.87e-08 | d yr |
n | .179241288496765 | 1.9134e-09 | deg/d |
Q | 3.539544105021676 | 2.5189e-08 | au |
|
| | Orbit Determination Parameters
Additional Information
|